Location: Grange Rosano
(44.4500°N, 6.9667°E)
Time: 17:31:34
(UTC+00:00)

USA 305 - Visible Passes

Search period start: 06 October 2022 00:00
Search period end: 16 October 2022 00:00
Orbit: 540 x 550 km, 54.0° (Epoch: 31 August)

Date Brightness Start Highest point End Pass type
(mag) Time Alt. Az. Time Alt. Az. Time Alt. Az.
06 Oct 6.1 02:01:37 10° NE 02:01:37 10° NE 02:01:41 10° NE visible
06 Oct 4.6 03:37:06 20° NNW 03:38:03 21° N 03:41:15 10° NE visible
07 Oct 4.7 03:29:12 20° NNW 03:29:55 21° N 03:33:06 10° NE visible
07 Oct 4.1 05:06:18 10° NW 05:10:06 35° NNE 05:13:53 10° E visible
08 Oct 4.7 03:21:18 21° N 03:21:43 21° N 03:24:56 10° NE visible
08 Oct 3.9 04:57:58 10° NW 05:01:51 40° NNE 05:05:43 10° E visible
09 Oct 4.7 03:13:23 22° N 03:13:30 22° N 03:16:46 10° ENE visible
09 Oct 3.7 04:49:34 10° NW 04:53:33 47° NNE 04:57:30 10° ESE visible
10 Oct 4.8 03:05:30 23° NNE 03:05:30 23° NNE 03:08:34 10° ENE visible
10 Oct 3.4 04:41:09 10° NW 04:45:12 56° NNE 04:49:13 10° ESE visible
11 Oct 4.9 02:57:38 23° NNE 02:57:38 23° NNE 03:00:19 10° ENE visible
11 Oct 3.1 04:33:07 13° NW 04:36:47 67° NNE 04:40:51 10° ESE visible
12 Oct 5.1 02:49:50 22° NE 02:49:50 22° NE 02:52:03 10° ENE visible
12 Oct 2.8 04:25:19 18° NW 04:28:19 82° NE 04:32:24 10° ESE visible
13 Oct 5.3 02:42:04 20° ENE 02:42:04 20° ENE 02:43:45 10° E visible
13 Oct 2.7 04:17:34 26° WNW 04:19:47 81° SW 04:23:52 10° SE visible
14 Oct 5.7 02:34:25 16° ENE 02:34:25 16° ENE 02:35:23 10° E visible
14 Oct 2.7 04:09:54 39° WNW 04:11:13 65° SW 04:15:15 10° SE visible
15 Oct 6.0 02:26:50 11° E 02:26:50 11° E 02:26:58 10° E visible
15 Oct 2.9 04:02:20 50° SW 04:02:35 51° SW 04:06:32 10° SE visible
